Starlink 3291

operational
NORAD ID: 50175 Int'l Des: 2021-125 Owner: SPXS Country: US Constellation: starlink
LEOCIRCULAR

About Starlink 3291

Description loading...

Live Position

Loading 3D Globe...

Upcoming Passes

Altitude History

Altitude vs Time

uPlot chart will show altitude changes over time

Two-Line Element Set

1 50175U 21125V 26102.68756544 .00000080 00000-0 23138-4 0 9994
2 50175 53.2167 96.4980 0001348 88.4658 271.6489 15.08837051241737
Epoch: Apr 12, 2026 • Age: 16 hours

Current Status

Altitude 544.7 km
Velocity 7.60 km/s
Sub-Earth Point 49.84°N, 123.01°W
Launch Date Dec 18, 2021
Age 4.3 years
Type internet

Technical Details

Classification Payload
Mass 290.00 kg
Dry Mass 270.00 kg
Total Mass 290.00 kg
Length 0.20 m
Diameter 2.80 m
Span 9.00 m
Shape Box + pan
Manufacturer SPXS
Bus Type Starlink
Phase Status In Orbit
Owner/State SPXS/US

Large Constellations

Loading constellations...